| time (UTC) | temp C | wind direction | speed KPH | gust KPH | rain 1hr cm | rain 24hr cm | rain mn cm | humidity % | barometer mb |
| 20260831181533 | 21 | 293 | 0.0 | 9.7 | 0.00 | 0.00 | 0.00 | 97 | 1009.3 |
| 20260831180532 | 21 | 293 | 0.0 | 9.7 | 0.00 | 0.00 | 0.00 | 97 | 1009.3 |
| 20260831175532 | 21 | 221 | 9.7 | 4.8 | 0.00 | 0.00 | 0.00 | 97 | 1009.3 |
| 20260831174532 | 21 | 221 | 9.7 | 4.8 | 0.00 | 0.00 | 0.00 | 97 | 1009.3 |
| 20260831173533 | 21 | 226 | 0.0 | 3.2 | 0.00 | 0.00 | 0.00 | 98 | 1009.2 |
| 20260831172533 | 21 | 226 | 0.0 | 3.2 | 0.00 | 0.00 | 0.00 | 98 | 1009.2 |
| 20260831171532 | 21 | 246 | 0.0 | 9.7 | 0.00 | 0.00 | 0.00 | 97 | 1009.3 |
| 20260831170533 | 21 | 246 | 0.0 | 9.7 | 0.00 | 0.00 | 0.00 | 97 | 1009.3 |
| 20260831165533 | 20 | 202 | 3.2 | 8.0 | 0.00 | 0.00 | 0.00 | 98 | 1009.3 |
| 20260831164534 | 20 | 202 | 3.2 | 8.0 | 0.00 | 0.00 | 0.00 | 98 | 1009.3 |
| 20260831163532 | 20 | 225 | 3.2 | 3.2 | 0.00 | 0.00 | 0.00 | 98 | 1009.1 |
| 20260831162532 | 20 | 225 | 3.2 | 3.2 | 0.00 | 0.00 | 0.00 | 98 | 1009.1 |
| 20260831161533 | 20 | 219 | 0.0 | 6.4 | 0.00 | 0.00 | 0.00 | 97 | 1009.2 |
| 20260831160533 | 20 | 240 | 0.0 | 0.0 | 0.00 | 0.00 | 0.00 | 98 | 1009.1 |
| 20260831155533 | 20 | 240 | 0.0 | 0.0 | 0.00 | 0.00 | 0.00 | 98 | 1009.1 |
| 20260831154534 | 20 | 240 | 0.0 | 3.2 | 0.00 | 0.00 | 0.00 | 98 | 1009.0 |
| 20260831153534 | 20 | 240 | 0.0 | 3.2 | 0.00 | 0.00 | 0.00 | 98 | 1009.0 |
| 20260831152533 | 20 | 240 | 0.0 | 1.6 | 0.00 | 0.00 | 0.00 | 98 | 1008.8 |
| 20260831151533 | 20 | 240 | 0.0 | 1.6 | 0.00 | 0.00 | 0.00 | 98 | 1008.8 |
| 20260831150533 | 20 | 240 | 0.0 | 8.0 | 0.00 | 0.00 | 0.00 | 98 | 1008.4 |
| 20260831145534 | 20 | 240 | 0.0 | 8.0 | 0.00 | 0.00 | 0.00 | 98 | 1008.4 |
| 20260831144533 | 19 | 240 | 0.0 | 1.6 | 0.00 | 0.00 | 0.00 | 98 | 1008.3 |
| 20260831143534 | 19 | 240 | 0.0 | 1.6 | 0.00 | 0.00 | 0.00 | 98 | 1008.3 |
| 20260831142533 | 18 | 240 | 0.0 | 0.0 | 0.00 | 0.00 | 0.00 | 98 | 1008.0 |
| 20260831141534 | 18 | 240 | 0.0 | 0.0 | 0.00 | 0.00 | 0.00 | 98 | 1008.0 |
| 20260831140534 | 18 | 240 | 0.0 | 0.0 | 0.00 | 0.00 | 0.00 | 98 | 1008.1 |
| 20260831135542 | 18 | 240 | 0.0 | 0.0 | 0.00 | 0.00 | 0.00 | 98 | 1008.1 |
| 20260831134534 | 18 | 240 | 0.0 | 0.0 | 0.00 | 0.00 | 0.00 | 98 | 1008.0 |
| 20260831133534 | 18 | 240 | 0.0 | 0.0 | 0.00 | 0.00 | 0.00 | 98 | 1008.0 |
| 20260831132534 | 18 | 240 | 0.0 | 0.0 | 0.00 | 0.00 | 0.00 | 97 | 1008.0 |
| 20260831131534 | 18 | 240 | 0.0 | 0.0 | 0.00 | 0.00 | 0.00 | 97 | 1008.0 |
| 20260831130535 | 18 | 240 | 0.0 | 0.0 | 0.00 | 0.00 | 0.00 | 97 | 1008.0 |
| 20260831125535 | 17 | 240 | 0.0 | 0.0 | 0.00 | 0.00 | 0.00 | 98 | 1008.1 |
| 20260831124535 | 17 | 240 | 0.0 | 0.0 | 0.00 | 0.00 | 0.00 | 98 | 1008.1 |
| 20260831123534 | 17 | 240 | 0.0 | 0.0 | 0.00 | 0.00 | 0.00 | 97 | 1008.4 |
| 20260831122534 | 17 | 240 | 0.0 | 0.0 | 0.00 | 0.00 | 0.00 | 97 | 1008.4 |
| 20260831120535 | 17 | 240 | 0.0 | 1.6 | 0.00 | 0.00 | 0.00 | 98 | 1008.4 |
| 20260831115535 | 17 | 241 | 0.0 | 0.0 | 0.00 | 0.00 | 0.00 | 98 | 1008.1 |
| 20260831114535 | 17 | 241 | 0.0 | 0.0 | 0.00 | 0.00 | 0.00 | 98 | 1008.1 |
| 20260831113534 | 17 | 241 | 0.0 | 1.6 | 0.00 | 0.00 | 0.00 | 97 | 1007.9 |
| 20260831112535 | 17 | 241 | 0.0 | 1.6 | 0.00 | 0.00 | 0.00 | 97 | 1007.9 |
| 20260831111535 | 16 | 241 | 0.0 | 9.7 | 0.00 | 0.00 | 0.00 | 97 | 1008.4 |
| 20260831110535 | 16 | 241 | 0.0 | 9.7 | 0.00 | 0.00 | 0.00 | 97 | 1008.4 |
| 20260831105535 | 16 | 195 | 0.0 | 0.0 | 0.00 | 0.00 | 0.00 | 97 | 1009.0 |
| 20260831104534 | 16 | 195 | 0.0 | 0.0 | 0.00 | 0.00 | 0.00 | 97 | 1009.0 |
| 20260831103534 | 16 | 188 | 0.0 | 1.6 | 0.00 | 0.00 | 0.00 | 97 | 1008.2 |
| 20260831102536 | 16 | 188 | 0.0 | 1.6 | 0.00 | 0.00 | 0.00 | 97 | 1008.2 |
| 20260831101535 | 16 | 198 | 0.0 | 1.6 | 0.00 | 0.00 | 0.00 | 97 | 1008.1 |
| 20260831100535 | 16 | 198 | 0.0 | 1.6 | 0.00 | 0.00 | 0.00 | 97 | 1008.1 |
| 20260831095535 | 16 | 181 | 0.0 | 1.6 | 0.00 | 0.00 | 0.00 | 97 | 1008.5 |
| 20260831094535 | 16 | 201 | 0.0 | 3.2 | 0.00 | 0.00 | 0.00 | 97 | 1008.0 |
| 20260831093535 | 16 | 201 | 0.0 | 3.2 | 0.00 | 0.00 | 0.00 | 97 | 1008.0 |
| 20260831092536 | 16 | 36 | 0.0 | 3.2 | 0.00 | 0.00 | 0.00 | 97 | 1008.4 |
| 20260831091535 | 16 | 36 | 0.0 | 3.2 | 0.00 | 0.00 | 0.00 | 97 | 1008.4 |
| 20260831090535 | 16 | 51 | 0.0 | 3.2 | 0.00 | 0.00 | 0.00 | 97 | 1008.5 |
| 20260831085535 | 16 | 51 | 0.0 | 3.2 | 0.00 | 0.00 | 0.00 | 97 | 1008.5 |
| 20260831084536 | 16 | 5 | 0.0 | 6.4 | 0.00 | 0.00 | 0.00 | 97 | 1008.4 |
| 20260831083544 | 16 | 5 | 0.0 | 6.4 | 0.00 | 0.00 | 0.00 | 97 | 1008.4 |
| 20260831082536 | 16 | 38 | 0.0 | 1.6 | 0.00 | 0.00 | 0.00 | 97 | 1008.5 |
| 20260831081535 | 16 | 38 | 0.0 | 1.6 | 0.00 | 0.00 | 0.00 | 97 | 1008.5 |
| 20260831080535 | 16 | 304 | 0.0 | 1.6 | 0.00 | 0.00 | 0.00 | 97 | 1008.6 |
| 20260831075536 | 16 | 304 | 0.0 | 1.6 | 0.00 | 0.00 | 0.00 | 97 | 1008.6 |
| 20260831074536 | 16 | 304 | 0.0 | 0.0 | 0.00 | 0.00 | 0.00 | 97 | 1008.9 |
| 20260831073538 | 16 | 304 | 0.0 | 0.0 | 0.00 | 0.00 | 0.00 | 97 | 1008.9 |
| 20260831072537 | 16 | 304 | 0.0 | 3.2 | 0.00 | 0.00 | 0.00 | 97 | 1009.5 |
| 20260831071537 | 16 | 304 | 0.0 | 3.2 | 0.00 | 0.00 | 0.00 | 97 | 1009.5 |
| 20260831070537 | 16 | 227 | 0.0 | 12.9 | 0.00 | 0.00 | 0.00 | 97 | 1009.5 |
| 20260831065546 | 16 | 227 | 0.0 | 12.9 | 0.00 | 0.00 | 0.00 | 97 | 1009.5 |
| 20260831064536 | 16 | 227 | 0.0 | 12.9 | 0.00 | 0.00 | 0.00 | 97 | 1009.2 |
| 20260831063537 | 16 | 226 | 0.0 | 3.2 | 0.00 | 0.00 | 0.00 | 97 | 1009.3 |
| 20260831062536 | 16 | 226 | 0.0 | 3.2 | 0.00 | 0.00 | 0.00 | 97 | 1009.3 |
| 20260831061536 | 16 | 179 | 0.0 | 3.2 | 0.00 | 0.00 | 0.00 | 97 | 1010.2 |
| 20260831060537 | 16 | 179 | 0.0 | 3.2 | 0.00 | 0.00 | 0.00 | 97 | 1010.2 |
| 20260831055540 | 16 | 300 | 0.0 | 3.2 | 0.00 | 0.00 | 0.00 | 97 | 1010.4 |
| 20260831054536 | 16 | 300 | 0.0 | 3.2 | 0.00 | 0.00 | 0.00 | 97 | 1010.4 |
| 20260831053537 | 16 | 300 | 0.0 | 3.2 | 0.00 | 0.00 | 0.00 | 96 | 1010.8 |
| 20260831052537 | 16 | 300 | 0.0 | 3.2 | 0.00 | 0.00 | 0.00 | 96 | 1010.8 |
| 20260831051537 | 16 | 233 | 0.0 | 3.2 | 0.00 | 0.00 | 0.00 | 96 | 1011.4 |
| 20260831050536 | 16 | 233 | 0.0 | 3.2 | 0.00 | 0.00 | 0.00 | 96 | 1011.4 |
| 20260831045537 | 16 | 144 | 0.0 | 1.6 | 0.00 | 0.00 | 0.00 | 96 | 1011.4 |
| 20260831044537 | 16 | 144 | 0.0 | 1.6 | 0.00 | 0.00 | 0.00 | 96 | 1011.4 |
| 20260831043536 | 16 | 60 | 0.0 | 8.0 | 0.00 | 0.00 | 0.00 | 96 | 1011.3 |
| 20260831042536 | 16 | 60 | 0.0 | 8.0 | 0.00 | 0.00 | 0.00 | 96 | 1011.3 |
| 20260831041536 | 16 | 155 | 0.0 | 3.2 | 0.00 | 0.00 | 0.00 | 96 | 1011.3 |
| 20260831040537 | 16 | 155 | 0.0 | 3.2 | 0.00 | 0.00 | 0.00 | 96 | 1011.3 |
| 20260831035536 | 16 | 206 | 0.0 | 8.0 | 0.00 | 0.00 | 0.00 | 96 | 1011.5 |
| 20260831034536 | 16 | 206 | 0.0 | 8.0 | 0.00 | 0.00 | 0.00 | 96 | 1011.5 |
| 20260831033536 | 16 | 22 | 0.0 | 8.0 | 0.00 | 0.00 | 0.00 | 95 | 1011.6 |
| 20260831032536 | 16 | 61 | 0.0 | 3.2 | 0.00 | 0.00 | 0.00 | 95 | 1011.8 |
| 20260831031537 | 16 | 61 | 0.0 | 3.2 | 0.00 | 0.00 | 0.00 | 95 | 1011.8 |
| 20260831030536 | 16 | 182 | 0.0 | 3.2 | 0.00 | 0.00 | 0.00 | 95 | 1011.8 |
| 20260831025538 | 16 | 182 | 0.0 | 3.2 | 0.00 | 0.00 | 0.00 | 95 | 1011.8 |
| 20260831024537 | 16 | 226 | 1.6 | 1.6 | 0.00 | 0.00 | 0.00 | 95 | 1011.4 |
| 20260831023538 | 16 | 226 | 1.6 | 1.6 | 0.00 | 0.00 | 0.00 | 95 | 1011.4 |
| 20260831022539 | 16 | 175 | 0.0 | 1.6 | 0.00 | 0.00 | 0.00 | 94 | 1011.1 |
| 20260831021538 | 16 | 175 | 0.0 | 1.6 | 0.00 | 0.00 | 0.00 | 94 | 1011.1 |
| 20260831020537 | 16 | 150 | 0.0 | 11.3 | 0.00 | 0.00 | 0.00 | 94 | 1011.3 |
| 20260831015539 | 16 | 150 | 0.0 | 11.3 | 0.00 | 0.00 | 0.00 | 94 | 1011.3 |
| 20260831014538 | 16 | 316 | 0.0 | 8.0 | 0.00 | 0.00 | 0.00 | 94 | 1011.0 |
| 20260831013539 | 16 | 316 | 0.0 | 8.0 | 0.00 | 0.00 | 0.00 | 94 | 1011.0 |
| 20260831012537 | 16 | 134 | 0.0 | 3.2 | 0.00 | 0.00 | 0.00 | 94 | 1010.6 |
| 20260831011538 | 16 | 134 | 0.0 | 3.2 | 0.00 | 0.00 | 0.00 | 94 | 1010.6 |
| 20260831010537 | 17 | 184 | 0.0 | 6.4 | 0.00 | 0.00 | 0.00 | 93 | 1010.7 |
| 20260831005539 | 17 | 184 | 0.0 | 6.4 | 0.00 | 0.00 | 0.00 | 93 | 1010.7 |
| 20260831004539 | 17 | 126 | 0.0 | 3.2 | 0.00 | 0.00 | 0.00 | 93 | 1011.3 |
| 20260831003538 | 17 | 126 | 0.0 | 3.2 | 0.00 | 0.00 | 0.00 | 93 | 1011.3 |
| 20260831002538 | 17 | 267 | 0.0 | 4.8 | 0.00 | 0.00 | 0.00 | 93 | 1011.9 |
| 20260831001539 | 17 | 273 | 0.0 | 4.8 | 0.00 | 0.00 | 0.00 | 93 | 1012.0 |
| 20260831000538 | 17 | 273 | 0.0 | 4.8 | 0.00 | 0.00 | 0.00 | 93 | 1012.0 |
| 20260830235539 | 17 | 53 | 0.0 | 1.6 | 0.00 | 0.00 | 0.00 | 92 | 1011.8 |
| 20260830234538 | 17 | 53 | 0.0 | 1.6 | 0.00 | 0.00 | 0.00 | 92 | 1011.8 |
| 20260830233538 | 17 | 132 | 0.0 | 3.2 | 0.00 | 0.00 | 0.00 | 92 | 1011.8 |
| 20260830232539 | 17 | 132 | 0.0 | 3.2 | 0.00 | 0.00 | 0.00 | 92 | 1011.8 |
| 20260830231538 | 17 | 167 | 0.0 | 3.2 | 0.00 | 0.00 | 0.00 | 92 | 1011.8 |
| 20260830230540 | 17 | 167 | 0.0 | 3.2 | 0.00 | 0.00 | 0.00 | 92 | 1011.8 |
| 20260830225539 | 17 | 104 | 0.0 | 3.2 | 0.00 | 0.00 | 0.00 | 92 | 1011.8 |
| 20260830224538 | 17 | 104 | 0.0 | 3.2 | 0.00 | 0.00 | 0.00 | 92 | 1011.8 |
| 20260830223540 | 17 | 60 | 0.0 | 3.2 | 0.00 | 0.00 | 0.00 | 93 | 1012.2 |
| 20260830222540 | 17 | 60 | 0.0 | 3.2 | 0.00 | 0.00 | 0.00 | 93 | 1012.2 |
| 20260830221539 | 17 | 114 | 0.0 | 8.0 | 0.00 | 0.00 | 0.00 | 92 | 1012.1 |
| 20260830220540 | 17 | 114 | 0.0 | 8.0 | 0.00 | 0.00 | 0.00 | 92 | 1012.1 |
| 20260830215541 | 17 | 350 | 0.0 | 6.4 | 0.00 | 0.00 | 0.00 | 91 | 1012.2 |
| 20260830214538 | 17 | 350 | 0.0 | 6.4 | 0.00 | 0.00 | 0.00 | 91 | 1012.2 |
| 20260830213539 | 17 | 355 | 0.0 | 1.6 | 0.00 | 0.00 | 0.00 | 92 | 1012.6 |
| 20260830212540 | 17 | 355 | 0.0 | 1.6 | 0.00 | 0.00 | 0.00 | 92 | 1012.6 |
| 20260830211539 | 17 | 169 | 0.0 | 11.3 | 0.00 | 0.00 | 0.00 | 91 | 1012.5 |
| 20260830210539 | 17 | 28 | 0.0 | 8.0 | 0.00 | 0.00 | 0.00 | 91 | 1012.6 |
| 20260830205549 | 17 | 28 | 0.0 | 8.0 | 0.00 | 0.00 | 0.00 | 91 | 1012.6 |
| 20260830204540 | 17 | 335 | 0.0 | 1.6 | 0.00 | 0.00 | 0.00 | 91 | 1012.6 |
| 20260830203539 | 17 | 335 | 0.0 | 1.6 | 0.00 | 0.00 | 0.00 | 91 | 1012.6 |
| 20260830202540 | 17 | 263 | 0.0 | 3.2 | 0.00 | 0.00 | 0.00 | 91 | 1012.2 |
| 20260830201549 | 17 | 263 | 0.0 | 3.2 | 0.00 | 0.00 | 0.00 | 91 | 1012.2 |
| 20260830200540 | 17 | 198 | 0.0 | 6.4 | 0.00 | 0.00 | 0.00 | 91 | 1012.3 |
| 20260830195540 | 17 | 198 | 0.0 | 6.4 | 0.00 | 0.00 | 0.00 | 91 | 1012.3 |
| 20260830194541 | 17 | 57 | 0.0 | 3.2 | 0.00 | 0.00 | 0.00 | 91 | 1012.4 |
| 20260830193540 | 17 | 57 | 0.0 | 3.2 | 0.00 | 0.00 | 0.00 | 91 | 1012.4 |
| 20260830192540 | 17 | 193 | 0.0 | 8.0 | 0.00 | 0.00 | 0.00 | 91 | 1012.3 |
| 20260830191542 | 17 | 193 | 0.0 | 8.0 | 0.00 | 0.00 | 0.00 | 91 | 1012.3 |
| 20260830190541 | 17 | 121 | 0.0 | 3.2 | 0.00 | 0.00 | 0.00 | 93 | 1012.3 |
| 20260830185539 | 17 | 121 | 0.0 | 3.2 | 0.00 | 0.00 | 0.00 | 93 | 1012.3 |
| 20260830184540 | 17 | 132 | 0.0 | 8.0 | 0.00 | 0.00 | 0.00 | 94 | 1012.1 |
| 20260830183541 | 17 | 132 | 0.0 | 8.0 | 0.00 | 0.00 | 0.00 | 94 | 1012.1 |
| 20260830182540 | 16 | 80 | 0.0 | 3.2 | 0.00 | 0.00 | 0.00 | 94 | 1012.1 |